TimeCDT,TemperatureF,Dew PointF,Humidity,Sea Level PressureIn,VisibilityMPH,Wind Direction,Wind SpeedMPH,Gust SpeedMPH,PrecipitationIn,Events,Conditions,WindDirDegrees,DateUTC
12:13 AM,64.4,60.8,88,29.88,5.0,Calm,Calm,-,N/A,,Haze,0,2013-08-20 05:13:00
12:33 AM,64.4,60.8,88,29.88,7.0,WSW,3.5,-,N/A,,Clear,250,2013-08-20 05:33:00
12:53 AM,66.2,62.6,88,29.88,10.0,WSW,3.5,-,N/A,,Clear,250,2013-08-20 05:53:00
1:13 AM,66.2,60.8,83,29.88,10.0,WSW,3.5,-,N/A,,Clear,250,2013-08-20 06:13:00
1:33 AM,66.2,62.6,88,29.88,7.0,Calm,Calm,-,N/A,,Clear,0,2013-08-20 06:33:00
1:53 AM,62.6,59.0,88,29.87,4.0,Calm,Calm,-,N/A,,Clear,0,2013-08-20 06:53:00
2:14 AM,66.2,60.8,83,29.87,7.0,West,3.5,-,N/A,,Clear,280,2013-08-20 07:14:00
2:33 AM,66.2,60.8,83,29.87,7.0,West,3.5,-,N/A,,Clear,280,2013-08-20 07:33:00
2:53 AM,66.2,60.8,83,29.87,7.0,West,3.5,-,N/A,,Clear,270,2013-08-20 07:53:00
3:14 AM,64.4,60.8,88,29.86,7.0,West,3.5,-,N/A,,Clear,260,2013-08-20 08:14:00
3:33 AM,66.2,60.8,83,29.86,7.0,West,3.5,-,N/A,,Clear,260,2013-08-20 08:33:00
3:53 AM,64.4,59.0,83,29.86,7.0,WSW,3.5,-,N/A,,Clear,240,2013-08-20 08:53:00
4:14 AM,64.4,60.8,88,29.86,7.0,WSW,4.6,-,N/A,,Clear,240,2013-08-20 09:14:00
4:33 AM,64.4,60.8,88,29.86,7.0,Calm,Calm,-,N/A,,Clear,0,2013-08-20 09:33:00
4:53 AM,62.6,59.0,88,29.87,5.0,Calm,Calm,-,N/A,,Clear,0,2013-08-20 09:53:00
5:13 AM,62.6,57.2,82,29.87,3.0,Calm,Calm,-,N/A,,Haze,0,2013-08-20 10:13:00
5:33 AM,62.6,57.2,82,29.87,4.0,Calm,Calm,-,N/A,,Haze,0,2013-08-20 10:33:00
5:54 AM,62.6,57.2,82,29.87,4.0,West,3.5,-,N/A,,Haze,270,2013-08-20 10:54:00
6:13 AM,64.4,59.0,83,29.88,5.0,West,3.5,-,N/A,,Haze,270,2013-08-20 11:13:00
6:33 AM,60.8,55.4,82,29.88,3.0,Calm,Calm,-,N/A,,Haze,0,2013-08-20 11:33:00
6:54 AM,62.6,57.2,82,29.88,4.0,Calm,Calm,-,N/A,,Haze,0,2013-08-20 11:54:00
7:13 AM,62.6,57.2,82,29.88,4.0,Calm,Calm,-,N/A,,Haze,0,2013-08-20 12:13:00
7:33 AM,66.2,60.8,83,29.89,5.0,Calm,Calm,-,N/A,,Haze,0,2013-08-20 12:33:00
7:52 AM,66.2,62.6,88,29.89,7.0,Calm,Calm,-,N/A,,Clear,0,2013-08-20 12:52:00
8:13 AM,69.8,64.4,83,29.89,7.0,SSW,5.8,-,N/A,,Clear,200,2013-08-20 13:13:00
8:33 AM,69.8,64.4,83,29.89,7.0,SSW,6.9,-,N/A,,Clear,200,2013-08-20 13:33:00
8:53 AM,71.6,64.4,78,29.89,10.0,SSW,8.1,-,N/A,,Clear,210,2013-08-20 13:53:00
9:14 AM,73.4,64.4,73,29.89,10.0,SSW,8.1,-,N/A,,Clear,200,2013-08-20 14:14:00
9:33 AM,73.4,66.2,78,29.88,10.0,SSW,6.9,-,N/A,,Clear,200,2013-08-20 14:33:00
9:53 AM,75.2,66.2,73,29.88,10.0,South,6.9,-,N/A,,Clear,190,2013-08-20 14:53:00
10:13 AM,75.2,66.2,73,29.88,10.0,SSW,4.6,-,N/A,,Unknown,200,2013-08-20 15:13:00
10:33 AM,75.2,66.2,73,29.87,10.0,South,6.9,-,N/A,,Scattered Clouds,170,2013-08-20 15:33:00
10:53 AM,77.0,66.2,69,29.87,10.0,SSW,6.9,-,N/A,,Clear,210,2013-08-20 15:53:00
11:13 AM,78.8,66.2,65,29.87,10.0,SW,4.6,-,N/A,,Clear,220,2013-08-20 16:13:00
11:33 AM,78.8,68.0,69,29.87,10.0,South,5.8,-,N/A,,Clear,180,2013-08-20 16:33:00
11:54 AM,78.8,68.0,69,29.87,10.0,SSW,8.1,-,N/A,,Clear,200,2013-08-20 16:54:00
12:13 PM,80.6,68.0,65,29.86,10.0,South,8.1,-,N/A,,Clear,170,2013-08-20 17:13:00
12:33 PM,80.6,69.8,70,29.86,10.0,South,10.4,-,N/A,,Clear,180,2013-08-20 17:33:00
12:54 PM,82.4,69.8,66,29.85,10.0,SW,13.8,20.7,N/A,,Clear,220,2013-08-20 17:54:00
1:13 PM,82.4,69.8,66,29.85,10.0,SSW,15.0,20.7,N/A,,Clear,200,2013-08-20 18:13:00
1:34 PM,82.4,69.8,66,29.85,10.0,South,12.7,-,N/A,,Scattered Clouds,190,2013-08-20 18:34:00
1:53 PM,84.2,69.8,62,29.84,10.0,SSW,9.2,-,N/A,,Scattered Clouds,200,2013-08-20 18:53:00
2:13 PM,84.2,69.8,62,29.84,10.0,SSW,11.5,18.4,N/A,,Scattered Clouds,210,2013-08-20 19:13:00
2:33 PM,84.2,69.8,62,29.84,10.0,SSW,15.0,20.7,N/A,,Scattered Clouds,200,2013-08-20 19:33:00
2:53 PM,84.2,69.8,62,29.83,10.0,South,11.5,16.1,N/A,,Scattered Clouds,180,2013-08-20 19:53:00
3:13 PM,86.0,69.8,58,29.83,10.0,SSW,12.7,17.3,N/A,,Scattered Clouds,200,2013-08-20 20:13:00
3:33 PM,86.0,69.8,58,29.82,10.0,SSW,15.0,-,N/A,,Scattered Clouds,210,2013-08-20 20:33:00
3:53 PM,87.8,69.8,55,29.82,10.0,South,11.5,16.1,N/A,,Scattered Clouds,190,2013-08-20 20:53:00
4:13 PM,86.0,69.8,58,29.81,10.0,South,10.4,-,N/A,,Scattered Clouds,190,2013-08-20 21:13:00
4:33 PM,87.8,69.8,55,29.80,10.0,South,13.8,17.3,N/A,,Clear,180,2013-08-20 21:33:00
4:53 PM,87.8,69.8,55,29.80,10.0,South,11.5,16.1,N/A,,Clear,190,2013-08-20 21:53:00
5:13 PM,87.8,69.8,55,29.81,10.0,South,10.4,16.1,N/A,,Clear,190,2013-08-20 22:13:00
5:33 PM,86.0,69.8,58,29.81,10.0,SSW,11.5,-,N/A,,Clear,200,2013-08-20 22:33:00
5:53 PM,86.0,69.8,58,29.80,10.0,SSW,10.4,-,N/A,,Clear,200,2013-08-20 22:53:00
6:14 PM,86.0,69.8,58,29.80,10.0,SSW,9.2,-,N/A,,Clear,200,2013-08-20 23:14:00
6:33 PM,84.2,69.8,62,29.80,10.0,SSW,11.5,-,N/A,,Clear,210,2013-08-20 23:33:00
6:53 PM,84.2,69.8,62,29.80,10.0,SSW,8.1,-,N/A,,Clear,200,2013-08-20 23:53:00
7:14 PM,82.4,68.0,62,29.80,10.0,SSW,6.9,-,N/A,,Clear,200,2013-08-21 00:14:00
7:33 PM,80.6,68.0,65,29.80,7.0,SSW,5.8,-,N/A,,Clear,210,2013-08-21 00:33:00
7:53 PM,80.6,68.0,65,29.80,10.0,SSW,5.8,-,N/A,,Clear,210,2013-08-21 00:53:00
8:14 PM,78.8,66.2,65,29.81,10.0,SW,5.8,-,N/A,,Clear,220,2013-08-21 01:14:00
8:33 PM,77.0,66.2,69,29.81,10.0,SSW,4.6,-,N/A,,Clear,210,2013-08-21 01:33:00
8:53 PM,75.2,66.2,73,29.81,10.0,SW,3.5,-,N/A,,Clear,220,2013-08-21 01:53:00
9:13 PM,73.4,66.2,78,29.82,10.0,Calm,Calm,-,N/A,,Unknown,0,2013-08-21 02:13:00
9:33 PM,73.4,66.2,78,29.82,10.0,WSW,3.5,-,N/A,,Clear,250,2013-08-21 02:33:00
9:53 PM,73.4,66.2,78,29.82,10.0,WSW,3.5,-,N/A,,Clear,240,2013-08-21 02:53:00
10:13 PM,75.2,66.2,73,29.82,10.0,SW,6.9,-,N/A,,Clear,220,2013-08-21 03:13:00
10:33 PM,75.2,68.0,78,29.82,10.0,SW,5.8,-,N/A,,Clear,220,2013-08-21 03:33:00
10:53 PM,75.2,68.0,78,29.82,10.0,SW,6.9,-,N/A,,Clear,220,2013-08-21 03:53:00
11:13 PM,75.2,68.0,78,29.81,10.0,SW,8.1,-,N/A,,Clear,220,2013-08-21 04:13:00
11:33 PM,75.2,68.0,78,29.81,10.0,SW,9.2,-,N/A,,Clear,220,2013-08-21 04:33:00
11:53 PM,73.4,68.0,83,29.80,10.0,SSW,6.9,-,N/A,,Clear,210,2013-08-21 04:53:00